Probability
0 0 0 0 0 0 0 0 0 0 0 0 0 0 0 0 0 0 0 0 0 0 0 0 0 0 0 0 0 0 0 0 0 0 0 0 0 0 0 0 0 0 0 0
0 0 0 0 0 0 0 0 0 0 0 0 0 0 0 0 0 0 0 0 0 0 0 0 0 0 0 0 0 0 0 0 0 0 0 0 0 0 0 0 0 0 0 0
0 0 0 0 0 0 0 0 0 0 0 0 0 0 0 0 0 0 0 0 0 0 0 0 0 0 0 0 0 0 0 0 0 0 0 0 0 0 0 0 0 0 0 0
0 0 0 0 0 0 0 0 0 0 0 0 0 0 0 0 0 0 0 0 0 0 0 0 0 0 0 0 0 0 0 0 0 0 0 0 0 0 0 0 0 0 0 0
0 0 0 0 0 0 0 0 0 0 0 0 0 0 0 0 0 0 0 0 0 0 0 0 0 0 0 0 0 0 0 0 0 0 0 0 0 0 0 0 0 0 0 0
0 0 0 0 0 0 0 0 0 0 0 0 0 0 0 0 0 0 0 0 0 0 0 0 0 0 0 0 0 0 0 0 0 0 0 0 0 0 0 0 0 0 0 0
0 0 0 0 0 0 0 0 0 0 0 0 0 0 0 0 0 0 0 0 0 0 0 0 0 0 0 0 0 0 0 0 0 0 0 0 0 0 0 0 0 0 0 0
0 0 0 0 0 0 0 0 0 0 0 0 0 0 0 0 0 0 0 0 0 0 0 0 0 0 0 0 0 0 0 0 0 0 0 0 0 0 0 0 0 0 0 0
0 0 0 0 0 0 0 0 0 0 0 0 0 0 0 0 0 0 0 0 0 0 0 0 0 0 0 0 0 0 0 0 0 0 0 0 0 0 0 0 0 0 0 0
0 0 0 0 0 0 0 0 0 0 0 0 0 0 0 0 0 0 0 0 0 0 0 0 0 0 0 0 0 0 0 0 0 0 0 0 0 0 0 0 0 0 0 0
0 0 0 0 0 0 0 0 0 0 0 0 0 0 0 0 0 0 0 0 0 0 0 0 0 0 0 0 0 0 0 0 0 0 0 0 0 0 0 0 0 0 0 0
0 0 0 0 0 0 0 0 0 0 0 0 0 0 0 0 0 0 0 0 0 0 0 0 0 0 0 0 0 0 0 0 0 0 0 0 0 0 0 0 0 0 0 0
0 0 0 0 0 0 0 0 0 0 0 0 0 0 0 0 0 0 0 0 0 0 0 0 0 0 0 0 0 0 0 0 0 0 0 0 0 0 0 0 0 0 0 0
0 0 0 0 0 0 0 0 0 0 0 0 0 0 0 0 0 0 0 0 0 0 0 0 0 0 0 0 0 0 0 0 0 0 0 0 0 0 0 0 0 0 0 0
0 0 0 0 0 0 0 0 0 0 0 0 0 0 0 0 0 0 0 0 0 0 0 0 0 0 0 0 0 0 3 0 0 0 0 0 0 0 0 0 0 0 0 0
0 0 0 0 0 0 0 0 0 0 0 0 0 0 0 0 0 0 0 0 0 0 0 0 0 0 0 0 3 3 3 3 3 0 0 0 0 0 0 0 0 0 0 0
0 0 0 0 0 0 0 0 0 0 0 0 0 0 0 0 0 0 0 0 0 0 0 0 0 0 0 0 0 3 3 3 0 0 0 0 0 0 0 0 0 0 0 0
0 0 0 0 0 0 0 0 0 0 0 0 0 0 0 0 0 0 0 0 0 0 0 0 0 0 0 0 0 0 0 0 0 0 0 0 0 0 0 0 0 0 0 0
0 0 0 0 0 0 0 0 0 0 0 0 0 0 0 0 0 0 0 0 0 0 0 0 0 0 0 0 0 0 0 0 0 0 0 0 0 0 0 0 0 0 0 0
0 0 0 0 0 0 0 0 0 0 0 0 0 0 0 0 0 0 0 0 0 0 0 0 0 0 0 0 0 0 0 0 0 0 0 0 0 0 0 0 0 0 0 0
0 0 0 0 0 0 0 0 0 0 0 0 0 0 0 0 0 0 0 0 0 0 0 0 0 0 0 0 0 0 0 0 0 0 0 0 0 0 0 0 0 0 0 0
0 0 0 0 0 0 0 0 0 0 0 0 0 0 0 0 0 0 0 0 0 0 0 0 0 0 0 0 0 0 0 0 0 0 0 0 0 0 0 0 0 0 0 0
0 0 0 0 0 0 0 0 0 0 0 0 0 0 0 0 0 0 0 0 0 0 0 0 0 0 0 0 0 0 0 0 0 0 0 0 0 0 0 0 0 0 0 0
0 0 0 0 0 0 0 0 0 0 0 0 0 0 0 0 0 0 0 0 0 0 0 0 0 0 0 0 0 0 0 0 0 0 0 0 0 0 0 0 0 0 0 0
0 0 0 0 0 0 0 0 0 0 0 0 0 0 0 0 0 0 0 0 0 0 0 0 0 0 0 0 0 0 0 0 0 0 0 0 0 0 0 0 0 0 0 0
0 0 0 0 0 0 0 0 0 0 0 0 0 0 0 0 0 0 0 0 0 0 0 0 0 0 0 0 0 0 0 0 0 0 0 0 0 0 0 0 0 0 0 0
Height
5830 5832 5833 5834 5835 5836 5837 5837 5838 5839 5839 5839 5839 5840 5840 5840 5840 5840 5840 5840 5841 5841 5841 5841 5841 5841 5841 5842 5842 5842 5842 5843 5843 5844 5844 5844 5844 5845 5845 5845 5845 5846 5846 5846
5828 5829 5831 5831 5832 5833 5834 5835 5836 5836 5836 5836 5837 5837 5837 5837 5837 5837 5837 5837 5837 5837 5838 5838 5838 5838 5838 5839 5839 5839 5839 5840 5840 5841 5841 5841 5842 5842 5842 5842 5843 5843 5843 5843
5825 5827 5827 5829 5830 5831 5832 5833 5833 5833 5833 5833 5834 5835 5835 5834 5834 5834 5834 5834 5834 5834 5834 5834 5834 5835 5835 5835 5835 5836 5836 5836 5837 5838 5838 5838 5839 5839 5839 5839 5840 5840 5840 5840
5822 5824 5825 5826 5827 5828 5829 5830 5830 5830 5830 5830 5831 5831 5832 5831 5830 5830 5830 5830 5830 5830 5830 5830 5830 5830 5831 5831 5831 5832 5832 5833 5833 5834 5835 5835 5835 5835 5835 5836 5836 5837 5837 5837
5819 5820 5821 5823 5824 5824 5825 5826 5826 5826 5826 5827 5827 5827 5828 5827 5827 5827 5826 5826 5826 5826 5826 5826 5826 5826 5827 5827 5827 5827 5828 5828 5829 5830 5831 5831 5832 5832 5832 5832 5833 5833 5833 5833
5816 5817 5818 5819 5820 5820 5821 5822 5822 5822 5822 5823 5823 5823 5823 5823 5822 5822 5822 5821 5821 5821 5821 5821 5822 5822 5822 5822 5822 5823 5823 5824 5825 5825 5826 5827 5827 5828 5828 5828 5829 5829 5829 5829
5812 5813 5814 5815 5815 5816 5816 5817 5817 5817 5817 5818 5818 5817 5819 5818 5818 5817 5817 5817 5817 5817 5816 5816 5817 5817 5817 5817 5817 5818 5818 5819 5820 5820 5821 5822 5822 5823 5823 5824 5824 5824 5825 5824
5808 5809 5810 5810 5811 5811 5812 5812 5813 5813 5812 5813 5813 5812 5814 5813 5812 5812 5812 5812 5811 5811 5811 5811 5811 5811 5811 5812 5812 5812 5813 5813 5814 5815 5815 5816 5817 5818 5818 5818 5819 5819 5820 5820
5803 5805 5805 5805 5805 5806 5806 5806 5807 5807 5806 5807 5807 5808 5808 5808 5807 5807 5806 5806 5806 5806 5805 5805 5805 5805 5805 5805 5806 5806 5807 5807 5808 5809 5810 5810 5811 5812 5812 5813 5813 5813 5814 5814
5798 5800 5800 5800 5801 5801 5801 5801 5801 5801 5800 5800 5801 5802 5803 5802 5801 5801 5800 5800 5800 5800 5799 5799 5799 5799 5800 5800 5800 5800 5800 5801 5802 5802 5803 5804 5805 5806 5806 5807 5807 5808 5808 5808
5793 5794 5795 5795 5794 5795 5796 5796 5795 5795 5795 5795 5794 5798 5797 5796 5795 5795 5794 5794 5794 5793 5793 5793 5793 5793 5793 5793 5794 5794 5794 5794 5795 5796 5796 5797 5798 5799 5800 5800 5801 5801 5802 5802
5787 5788 5788 5789 5789 5789 5789 5789 5790 5790 5789 5789 5788 5792 5790 5789 5788 5788 5787 5787 5787 5787 5786 5786 5786 5787 5787 5787 5787 5787 5787 5788 5788 5789 5790 5790 5791 5792 5792 5793 5794 5794 5795 5795
5781 5781 5782 5783 5785 5784 5783 5783 5783 5783 5783 5782 5782 5786 5783 5783 5781 5781 5781 5780 5780 5780 5780 5779 5779 5780 5780 5780 5780 5780 5780 5781 5781 5782 5782 5783 5784 5784 5785 5785 5786 5787 5787 5788
5775 5775 5776 5776 5776 5776 5776 5777 5777 5776 5776 5776 5776 5777 5777 5776 5775 5774 5774 5773 5773 5772 5772 5772 5772 5772 5772 5772 5772 5773 5773 5773 5774 5774 5775 5775 5776 5776 5777 5777 5778 5779 5779 5780
5768 5768 5768 5769 5769 5769 5769 5770 5770 5769 5769 5769 5770 5770 5770 5768 5768 5767 5766 5766 5766 5765 5765 5765 5764 5764 5764 5765 5765 5765 5765 5766 5766 5766 5767 5767 5768 5768 5769 5769 5770 5771 5771 5772
5762 5762 5762 5763 5763 5763 5763 5763 5763 5763 5762 5762 5762 5762 5762 5761 5760 5760 5759 5758 5758 5758 5757 5757 5757 5757 5757 5757 5757 5757 5758 5758 5758 5759 5759 5760 5760 5761 5761 5762 5762 5762 5763 5763
5756 5756 5756 5757 5757 5756 5757 5758 5757 5756 5756 5756 5755 5755 5754 5753 5753 5752 5752 5751 5750 5749 5749 5749 5749 5749 5749 5749 5749 5749 5750 5750 5750 5751 5752 5752 5753 5753 5753 5753 5754 5754 5754 5755
5751 5750 5750 5750 5751 5750 5753 5751 5750 5749 5749 5748 5747 5747 5746 5746 5745 5745 5744 5743 5742 5742 5741 5741 5741 5741 5741 5740 5740 5741 5741 5742 5742 5743 5743 5744 5744 5745 5745 5745 5745 5746 5746 5746
5745 5745 5744 5744 5743 5743 5745 5744 5743 5742 5742 5741 5740 5739 5739 5738 5737 5737 5736 5735 5734 5734 5733 5733 5732 5732 5732 5732 5731 5732 5733 5733 5734 5735 5735 5735 5735 5736 5736 5737 5737 5737 5737 5737
5739 5739 5739 5737 5736 5737 5738 5736 5735 5735 5734 5734 5732 5731 5730 5729 5729 5729 5728 5727 5726 5725 5725 5725 5724 5724 5723 5723 5723 5723 5724 5724 5725 5726 5726 5726 5726 5727 5727 5728 5728 5728 5728 5728
5733 5732 5732 5731 5729 5730 5730 5728 5728 5728 5728 5726 5725 5723 5723 5722 5721 5720 5719 5718 5717 5717 5716 5716 5716 5715 5714 5714 5714 5714 5714 5715 5715 5716 5716 5717 5717 5717 5718 5718 5718 5718 5718 5718
5726 5725 5724 5723 5723 5725 5722 5721 5721 5720 5718 5718 5717 5716 5715 5714 5713 5712 5711 5710 5709 5708 5708 5707 5707 5706 5706 5705 5705 5705 5705 5705 5705 5706 5706 5706 5707 5707 5707 5708 5708 5708 5708 5708
5719 5719 5717 5717 5718 5716 5714 5713 5712 5711 5710 5710 5709 5708 5707 5706 5705 5704 5703 5701 5700 5700 5699 5698 5697 5697 5696 5696 5695 5695 5695 5695 5695 5696 5696 5696 5696 5697 5697 5697 5698 5698 5698 5698
5712 5711 5710 5710 5709 5708 5707 5706 5705 5704 5703 5702 5701 5700 5699 5698 5696 5695 5694 5693 5692 5691 5690 5689 5688 5688 5687 5686 5685 5685 5685 5685 5685 5685 5685 5685 5685 5686 5686 5686 5687 5687 5688 5688
5706 5705 5704 5703 5702 5701 5700 5698 5697 5696 5695 5694 5693 5692 5690 5689 5688 5687 5686 5684 5683 5682 5681 5680 5679 5678 5677 5676 5676 5675 5675 5675 5674 5674 5674 5675 5675 5675 5675 5675 5676 5677 5677 5677
5699 5699 5698 5697 5696 5694 5693 5691 5689 5688 5687 5686 5685 5684 5683 5681 5680 5679 5677 5676 5674 5673 5672 5671 5670 5669 5668 5667 5666 5665 5665 5664 5664 5663 5663 5664 5664 5664 5664 5665 5665 5666 5666 5666
Wind_Speed
12 12 12 13 13 13 12 12 11 11 11 12 12 11 12 12 12 12 12 13 13 13 13 13 12 13 13 12 12 12 12 12 11 11 11 11 11 11 11 11 11 10 10 10
13 13 13 13 13 13 12 12 12 12 12 13 13 13 13 13 13 13 14 14 14 14 14 14 14 14 14 14 13 13 13 13 12 12 12 12 11 11 12 12 12 11 11 11
13 13 13 13 13 13 13 13 13 13 14 14 14 14 14 14 14 14 15 15 15 15 15 15 15 15 15 15 14 14 14 14 13 13 13 13 12 12 12 12 13 12 12 12
15 14 14 14 14 14 14 14 15 15 15 15 16 15 14 15 15 15 15 16 16 16 16 16 16 15 15 15 16 16 16 15 15 15 15 14 13 13 12 13 13 14 14 14
15 15 15 15 15 16 15 16 16 16 17 17 17 16 15 15 15 16 16 16 17 17 17 17 17 17 16 16 16 17 17 17 17 16 16 16 15 14 13 13 14 15 15 15
16 16 17 16 17 17 17 17 18 18 18 18 17 18 16 16 15 16 16 17 18 19 18 18 18 18 18 18 18 18 18 18 18 18 17 17 17 16 15 15 16 16 16 16
17 17 18 18 18 18 19 19 19 20 20 20 19 19 18 17 17 17 17 18 19 20 19 19 19 18 18 18 19 19 19 19 19 19 18 19 18 18 17 18 18 17 18 18
17 17 18 19 19 20 20 20 21 21 22 21 20 20 19 18 18 19 19 19 20 20 20 20 20 19 19 19 20 20 20 20 20 20 20 20 20 20 19 19 20 19 19 19
18 18 18 19 20 21 21 22 21 22 23 23 22 21 19 19 19 20 20 20 20 20 20 21 21 21 21 21 21 21 21 21 21 21 22 22 22 21 21 21 21 21 21 21
20 20 20 20 21 21 21 22 22 23 22 22 22 21 20 19 20 20 21 21 21 21 21 21 22 22 22 22 22 22 22 22 22 22 23 23 23 24 23 23 22 22 22 22
21 21 20 21 21 21 21 21 22 23 23 23 23 22 20 21 21 21 21 22 22 21 22 22 22 23 23 23 22 23 23 24 24 24 25 24 24 24 25 24 24 23 23 23
21 22 22 21 22 22 22 22 22 22 22 23 24 23 21 21 21 21 22 22 22 22 23 23 23 23 23 23 24 24 24 25 25 26 26 26 26 26 26 26 26 25 24 24
23 24 24 23 22 22 23 23 23 23 24 24 24 23 22 22 23 23 23 23 23 23 23 23 23 24 24 24 25 25 25 25 26 27 27 27 27 27 27 27 27 26 26 25
24 24 24 23 23 23 23 23 23 24 25 25 24 23 23 23 24 24 24 24 23 23 23 24 24 25 25 26 27 26 26 26 26 26 27 27 27 27 27 27 27 27 27 26
23 24 23 23 22 22 23 24 24 25 25 26 25 25 24 25 25 25 25 25 25 24 24 24 24 25 26 27 26 26 26 26 26 26 26 26 26 26 26 27 27 28 28 27
22 23 23 22 22 22 23 24 24 25 24 25 25 25 25 26 26 25 25 25 26 25 25 25 26 26 27 27 27 27 27 27 27 27 26 26 26 26 27 27 27 27 28 28
22 22 22 22 22 23 24 22 23 25 25 26 26 25 25 26 26 26 25 26 26 27 27 27 27 28 28 28 27 27 27 27 28 27 27 27 27 27 27 28 28 28 28 29
21 21 22 22 23 25 24 23 24 25 25 27 28 27 26 27 27 27 27 27 26 26 27 27 28 28 29 30 29 28 27 27 27 28 28 28 28 28 28 29 28 28 29 29
20 21 22 23 24 25 24 23 23 24 25 26 27 27 26 27 27 27 27 27 27 27 27 27 28 28 29 30 30 31 30 28 28 29 29 29 29 29 29 29 29 29 30 30
22 22 23 24 25 25 24 24 24 25 25 24 26 27 27 27 27 26 26 27 27 27 27 27 28 28 28 29 30 31 31 31 30 30 30 30 29 30 30 30 31 31 31 31
23 23 24 25 26 25 24 25 25 26 27 26 25 26 27 27 28 27 27 28 28 28 28 29 29 28 28 29 30 31 31 32 32 31 31 32 32 32 31 31 31 31 32 32
24 24 25 25 26 26 26 27 27 27 27 27 26 26 26 27 27 27 27 28 28 29 29 30 29 29 29 29 30 31 31 32 33 33 33 34 34 34 34 34 34 33 32 32
25 25 25 25 25 25 26 26 27 27 27 27 27 27 27 28 28 28 28 28 28 29 29 30 30 29 29 30 30 31 31 32 33 34 35 35 35 35 35 35 35 35 34 34
24 24 24 24 24 25 25 25 26 27 27 27 27 27 27 28 29 29 29 29 29 29 29 30 30 30 30 30 31 32 32 32 33 34 35 35 35 35 35 35 35 35 34 34
21 22 22 23 23 24 24 25 26 27 27 26 26 26 26 27 27 27 28 28 28 28 29 29 29 29 29 30 31 31 32 33 34 34 34 35 35 35 35 35 34 34 34 34
22 22 23 23 23 24 24 24 25 25 26 25 25 25 25 26 27 28 28 29 30 30 29 28 28 28 28 29 30 31 31 32 33 34 34 35 35 35 35 35 35 35 34 33
Wind_Direction
249 248 250 253 255 258 260 260 261 265 268 270 271 270 270 269 267 265 262 260 260 260 260 260 259 258 258 259 258 257 255 257 256 257 259 261 260 259 258 258 261 264 268 276
248 247 249 253 257 258 258 260 261 264 269 271 273 273 272 273 269 267 266 263 260 261 262 261 259 256 257 257 256 256 255 257 256 257 259 261 261 260 258 256 258 262 268 274
250 249 250 254 258 258 258 262 264 266 269 273 274 272 272 271 269 267 265 264 261 261 262 263 261 259 258 257 254 253 255 255 255 256 259 262 261 263 261 258 258 264 270 275
248 250 252 255 257 259 262 262 264 265 266 270 274 274 272 270 268 266 265 264 262 261 262 262 260 258 259 259 257 255 254 255 256 257 259 261 258 258 259 260 262 266 269 272
251 251 253 254 256 259 262 262 264 266 267 269 271 273 271 271 270 269 268 266 264 263 263 263 261 259 260 261 260 256 255 255 255 256 258 258 256 257 263 265 265 267 269 271
251 254 255 256 257 260 263 264 266 267 267 269 272 273 271 272 274 272 271 269 268 267 266 264 261 259 260 261 261 256 256 255 254 254 255 256 255 256 261 265 267 267 268 269
253 256 257 257 258 260 262 264 266 268 268 270 272 273 273 274 274 274 273 271 270 268 267 266 263 262 261 260 259 255 254 254 254 255 256 256 257 256 258 262 265 267 269 269
256 258 259 259 259 261 262 263 266 269 272 273 272 273 273 273 274 275 275 272 272 271 269 268 266 264 263 262 259 257 255 254 255 256 256 257 257 258 261 263 264 265 269 270
258 258 259 260 262 263 263 264 267 270 273 274 273 272 273 274 274 274 275 273 272 272 270 267 266 264 264 264 262 260 258 257 256 256 257 258 258 260 263 265 266 267 268 269
261 260 258 261 263 263 264 265 265 267 273 275 275 275 274 273 274 275 274 273 271 270 270 268 265 263 263 263 262 262 260 259 258 257 258 259 260 261 261 263 264 266 268 267
263 263 262 261 263 263 262 262 264 268 272 277 279 280 278 277 277 277 276 273 271 270 270 269 266 263 263 263 264 263 261 260 260 260 260 260 261 261 261 263 263 265 266 265
264 266 265 264 264 264 263 264 265 269 272 275 278 279 281 281 279 278 276 274 273 270 269 268 267 264 263 263 264 264 262 260 259 260 261 262 264 263 262 263 263 263 264 265
266 267 269 266 264 264 265 267 268 270 272 274 276 278 280 280 280 279 276 275 273 270 268 265 265 265 264 263 263 263 262 261 260 261 261 262 263 263 263 263 263 263 264 265
269 269 269 269 269 266 265 265 266 269 272 274 276 276 277 277 276 276 276 276 273 269 267 264 264 266 265 264 263 262 262 262 261 262 262 263 262 263 263 262 262 264 264 263
271 269 268 267 267 266 266 267 268 270 271 273 277 277 277 278 278 277 276 275 272 271 268 266 264 265 263 264 264 263 262 263 262 261 262 263 263 264 263 262 262 263 263 262
272 270 268 266 266 266 268 269 270 270 271 273 275 275 277 277 278 278 278 275 272 269 269 268 267 265 263 263 263 264 265 263 262 261 261 262 265 265 264 264 264 263 264 264
273 273 270 268 267 268 270 275 274 273 273 274 275 277 277 277 277 277 277 275 273 270 270 269 268 265 264 264 264 265 265 264 263 262 261 262 263 264 264 265 264 265 265 266
274 273 272 271 271 272 275 276 277 276 274 273 274 276 276 276 277 277 277 276 274 273 271 269 267 266 265 264 264 264 265 264 262 261 261 260 262 263 263 264 264 265 266 267
273 272 272 272 273 275 277 278 278 278 278 276 276 276 277 275 275 276 275 274 273 273 272 271 270 269 265 263 264 264 263 263 263 262 262 261 261 263 264 265 266 267 267 266
272 271 272 273 275 276 278 278 278 279 280 281 279 278 278 277 277 277 274 273 274 273 272 271 269 269 267 265 265 265 265 263 263 262 261 261 262 263 264 264 264 265 266 266
272 272 272 274 275 275 277 277 278 279 281 281 281 279 278 278 278 276 275 274 274 273 271 271 271 269 269 268 267 267 267 266 265 264 261 260 262 264 265 265 265 265 264 264
274 276 276 274 275 276 276 276 277 278 278 279 279 278 278 279 278 276 276 276 276 275 274 273 273 271 270 270 269 268 268 268 268 267 265 263 262 263 266 267 268 268 268 267
275 277 277 277 277 277 276 276 277 278 278 278 279 279 279 279 278 279 279 279 278 276 276 275 275 272 271 270 270 270 271 271 270 269 268 268 265 264 266 267 268 269 270 270
278 279 279 279 279 279 278 276 275 276 277 277 278 280 280 280 280 280 280 280 279 278 276 276 274 274 273 272 271 271 272 273 273 272 271 270 269 268 268 266 267 268 269 269
279 280 280 282 282 282 282 281 279 278 278 279 278 280 281 281 281 281 281 280 280 281 280 277 275 275 274 274 272 272 273 274 274 273 272 272 271 271 269 268 267 268 269 269
276 277 279 281 284 285 285 284 282 281 280 280 278 281 283 281 281 280 281 280 280 279 279 279 278 277 276 274 273 273 273 274 273 272 272 271 270 270 270 268 267 267 268 268